| time (UTC) | temp F | wind direction | speed MPH | gust MPH | rain 1hr in | rain 24hr in | rain mn in | humidity % | barometer mb |
| 20260905222511 | 73 | 102 | 5.0 | 10.0 | 0.00 | 0.00 | 0.00 | 82 | 1017.4 |
| 20260905222019 | 74 | 65 | 6.0 | 10.0 | 0.00 | 0.00 | 0.00 | 81 | 1017.3 |
| 20260905221531 | 74 | 55 | 4.0 | 11.0 | 0.00 | 0.00 | 0.00 | 81 | 1017.2 |
| 20260905221008 | 74 | 51 | 7.0 | 12.0 | 0.00 | 0.00 | 0.00 | 80 | 1017.1 |
| 20260905220515 | 75 | 101 | 8.0 | 12.0 | 0.00 | 0.00 | 0.00 | 79 | 1017.1 |
| 20260905220035 | 75 | 68 | 5.0 | 12.0 | 0.00 | 0.00 | 0.00 | 78 | 1017.0 |
| 20260905215519 | 75 | 67 | 7.0 | 12.0 | 0.00 | 0.00 | 0.00 | 78 | 1016.9 |
| 20260905215017 | 76 | 51 | 2.0 | 8.0 | 0.00 | 0.00 | 0.00 | 77 | 1016.8 |
| 20260905214533 | 75 | 242 | 2.0 | 14.0 | 0.00 | 0.00 | 0.00 | 77 | 1016.7 |
| 20260905214016 | 75 | 182 | 3.0 | 14.0 | 0.00 | 0.00 | 0.00 | 78 | 1016.7 |
| 20260905213518 | 75 | 50 | 10.0 | 14.0 | 0.00 | 0.00 | 0.00 | 76 | 1016.6 |
| 20260905213033 | 76 | 20 | 6.0 | 14.0 | 0.00 | 0.00 | 0.00 | 76 | 1016.6 |
| 20260905212514 | 77 | 79 | 8.0 | 14.0 | 0.00 | 0.00 | 0.00 | 75 | 1016.6 |
| 20260905212018 | 77 | 92 | 4.0 | 13.0 | 0.00 | 0.00 | 0.00 | 75 | 1016.5 |
| 20260905211534 | 77 | 61 | 8.0 | 13.0 | 0.00 | 0.00 | 0.00 | 74 | 1016.6 |
| 20260905211014 | 77 | 55 | 8.0 | 15.0 | 0.00 | 0.00 | 0.00 | 73 | 1016.5 |
| 20260905210519 | 77 | 34 | 8.0 | 14.0 | 0.00 | 0.00 | 0.00 | 72 | 1016.7 |
| 20260905210043 | 78 | 37 | 4.0 | 13.0 | 0.00 | 0.00 | 0.00 | 73 | 1016.6 |
| 20260905205513 | 78 | 55 | 6.0 | 11.0 | 0.00 | 0.00 | 0.00 | 73 | 1016.5 |
| 20260905205016 | 78 | 338 | 5.0 | 12.0 | 0.00 | 0.00 | 0.00 | 74 | 1016.7 |
| 20260905204537 | 78 | 332 | 6.0 | 11.0 | 0.00 | 0.00 | 0.00 | 73 | 1016.9 |
| 20260905204013 | 78 | 262 | 4.0 | 11.0 | 0.00 | 0.00 | 0.00 | 73 | 1016.8 |
| 20260905203514 | 77 | 75 | 5.0 | 10.0 | 0.00 | 0.00 | 0.00 | 74 | 1016.8 |
| 20260905203032 | 77 | 101 | 6.0 | 13.0 | 0.00 | 0.00 | 0.00 | 75 | 1016.8 |
| 20260905202515 | 78 | 111 | 6.0 | 13.0 | 0.00 | 0.00 | 0.00 | 73 | 1016.9 |
| 20260905202017 | 79 | 69 | 7.0 | 14.0 | 0.00 | 0.00 | 0.00 | 71 | 1016.9 |
| 20260905201527 | 78 | 46 | 6.0 | 14.0 | 0.00 | 0.00 | 0.00 | 74 | 1016.8 |
| 20260905201014 | 78 | 67 | 6.0 | 14.0 | 0.00 | 0.00 | 0.00 | 73 | 1016.9 |
| 20260905200517 | 78 | 78 | 7.0 | 14.0 | 0.00 | 0.00 | 0.00 | 73 | 1016.9 |
| 20260905200038 | 79 | 90 | 5.0 | 11.0 | 0.00 | 0.00 | 0.00 | 73 | 1016.9 |
| 20260905195513 | 78 | 186 | 4.0 | 12.0 | 0.00 | 0.00 | 0.00 | 74 | 1017.0 |
| 20260905195020 | 77 | 136 | 3.0 | 12.0 | 0.00 | 0.00 | 0.00 | 76 | 1017.0 |
| 20260905194535 | 77 | 99 | 6.0 | 13.0 | 0.00 | 0.00 | 0.00 | 76 | 1016.9 |
| 20260905194014 | 77 | 63 | 8.0 | 14.0 | 0.00 | 0.00 | 0.00 | 77 | 1017.0 |
| 20260905193519 | 78 | 59 | 5.0 | 14.0 | 0.00 | 0.00 | 0.00 | 76 | 1017.0 |
| 20260905193030 | 78 | 39 | 5.0 | 13.0 | 0.00 | 0.00 | 0.00 | 75 | 1016.9 |
| 20260905192520 | 78 | 301 | 6.0 | 12.0 | 0.00 | 0.00 | 0.00 | 78 | 1016.9 |
| 20260905192019 | 79 | 50 | 7.0 | 13.0 | 0.00 | 0.00 | 0.00 | 74 | 1016.8 |
| 20260905191507 | 81 | 52 | 8.0 | 13.0 | 0.00 | 0.00 | 0.00 | 70 | 1016.7 |
| 20260905191003 | 81 | 59 | 4.0 | 11.0 | 0.00 | 0.00 | 0.00 | 69 | 1016.7 |
| 20260905190505 | 81 | 234 | 3.0 | 8.0 | 0.00 | 0.00 | 0.00 | 69 | 1016.7 |
| 20260905190012 | 82 | 256 | 3.0 | 7.0 | 0.00 | 0.00 | 0.00 | 70 | 1016.8 |
| 20260905185503 | 80 | 46 | 2.0 | 9.0 | 0.00 | 0.00 | 0.00 | 71 | 1016.8 |
| 20260905185004 | 80 | 352 | 3.0 | 9.0 | 0.00 | 0.00 | 0.00 | 69 | 1017.0 |
| 20260905184515 | 80 | 158 | 2.0 | 9.0 | 0.00 | 0.00 | 0.00 | 70 | 1016.9 |
| 20260905184004 | 80 | 12 | 2.0 | 9.0 | 0.00 | 0.00 | 0.00 | 70 | 1016.8 |
| 20260905183504 | 80 | 326 | 3.0 | 9.0 | 0.00 | 0.00 | 0.00 | 69 | 1016.9 |
| 20260905183014 | 80 | 62 | 3.0 | 10.0 | 0.00 | 0.00 | 0.00 | 69 | 1016.9 |
| 20260905182504 | 80 | 9 | 3.0 | 11.0 | 0.00 | 0.00 | 0.00 | 70 | 1017.0 |
| 20260905182004 | 80 | 352 | 4.0 | 11.0 | 0.00 | 0.00 | 0.00 | 69 | 1017.0 |
| 20260905181513 | 80 | 281 | 4.0 | 10.0 | 0.00 | 0.00 | 0.00 | 69 | 1016.9 |
| 20260905181005 | 80 | 335 | 3.0 | 10.0 | 0.00 | 0.00 | 0.00 | 70 | 1016.9 |
| 20260905180505 | 80 | 46 | 2.0 | 10.0 | 0.00 | 0.00 | 0.00 | 70 | 1016.9 |
| 20260905180010 | 79 | 16 | 3.0 | 10.0 | 0.00 | 0.00 | 0.00 | 71 | 1016.8 |
| 20260905175505 | 79 | 96 | 3.0 | 10.0 | 0.00 | 0.00 | 0.00 | 72 | 1017.0 |
| 20260905175003 | 80 | 69 | 3.0 | 10.0 | 0.00 | 0.00 | 0.00 | 71 | 1016.9 |
| 20260905174526 | 79 | 34 | 4.0 | 9.0 | 0.00 | 0.00 | 0.00 | 73 | 1016.7 |
| 20260905174005 | 79 | 38 | 5.0 | 8.0 | 0.00 | 0.00 | 0.00 | 72 | 1016.7 |
| 20260905173507 | 78 | 132 | 3.0 | 7.0 | 0.00 | 0.00 | 0.00 | 74 | 1016.9 |
| 20260905173008 | 79 | 58 | 3.0 | 8.0 | 0.00 | 0.00 | 0.00 | 72 | 1017.0 |
| 20260905172504 | 79 | 84 | 3.0 | 8.0 | 0.00 | 0.00 | 0.00 | 73 | 1017.0 |
| 20260905172007 | 80 | 61 | 2.0 | 10.0 | 0.00 | 0.00 | 0.00 | 72 | 1017.0 |
| 20260905171508 | 79 | 40 | 2.0 | 10.0 | 0.00 | 0.00 | 0.00 | 74 | 1016.9 |
| 20260905171007 | 78 | 101 | 2.0 | 7.0 | 0.00 | 0.00 | 0.00 | 75 | 1016.8 |
| 20260905170504 | 78 | 9 | 2.0 | 9.0 | 0.00 | 0.00 | 0.00 | 76 | 1016.9 |
| 20260905170010 | 78 | 15 | 2.0 | 8.0 | 0.00 | 0.00 | 0.00 | 75 | 1017.0 |
| 20260905165506 | 78 | 17 | 1.0 | 6.0 | 0.00 | 0.00 | 0.00 | 74 | 1017.0 |
| 20260905165006 | 78 | 271 | 1.0 | 6.0 | 0.00 | 0.00 | 0.00 | 74 | 1017.0 |
| 20260905164512 | 78 | 83 | 2.0 | 7.0 | 0.00 | 0.00 | 0.00 | 75 | 1017.1 |
| 20260905164005 | 77 | 85 | 3.0 | 7.0 | 0.00 | 0.00 | 0.00 | 78 | 1017.1 |
| 20260905163504 | 77 | 74 | 2.0 | 6.0 | 0.00 | 0.00 | 0.00 | 77 | 1017.2 |
| 20260905163014 | 77 | 148 | 3.0 | 7.0 | 0.00 | 0.00 | 0.00 | 76 | 1017.1 |
| 20260905162506 | 77 | 88 | 3.0 | 7.0 | 0.00 | 0.00 | 0.00 | 76 | 1017.0 |
| 20260905162006 | 77 | 13 | 4.0 | 8.0 | 0.00 | 0.00 | 0.00 | 77 | 1017.0 |
| 20260905161514 | 77 | 64 | 1.0 | 8.0 | 0.00 | 0.00 | 0.00 | 78 | 1017.0 |
| 20260905161007 | 76 | 90 | 2.0 | 8.0 | 0.00 | 0.00 | 0.00 | 79 | 1017.0 |
| 20260905160507 | 76 | 65 | 2.0 | 8.0 | 0.00 | 0.00 | 0.00 | 79 | 1017.0 |
| 20260905160027 | 77 | 350 | 2.0 | 5.0 | 0.00 | 0.00 | 0.00 | 78 | 1017.0 |
| 20260905155508 | 77 | 33 | 1.0 | 6.0 | 0.00 | 0.00 | 0.00 | 79 | 1016.9 |
| 20260905155007 | 76 | 97 | 3.0 | 7.0 | 0.00 | 0.00 | 0.00 | 79 | 1016.9 |
| 20260905154514 | 76 | 24 | 2.0 | 8.0 | 0.00 | 0.00 | 0.00 | 80 | 1016.8 |
| 20260905154006 | 75 | 94 | 2.0 | 8.0 | 0.00 | 0.00 | 0.00 | 80 | 1016.8 |
| 20260905153508 | 76 | 95 | 1.0 | 4.0 | 0.00 | 0.00 | 0.00 | 80 | 1016.8 |
| 20260905153015 | 76 | 337 | 1.0 | 5.0 | 0.00 | 0.00 | 0.00 | 81 | 1016.8 |
| 20260905152509 | 76 | 46 | 2.0 | 5.0 | 0.00 | 0.03 | 0.00 | 80 | 1016.7 |
| 20260905152012 | 76 | 178 | 1.0 | 6.0 | 0.00 | 0.17 | 0.00 | 81 | 1016.7 |
| 20260905151516 | 75 | 35 | 1.0 | 6.0 | 0.00 | 0.35 | 0.00 | 81 | 1016.6 |
| 20260905151010 | 76 | 66 | 3.0 | 8.0 | 0.00 | 0.40 | 0.00 | 80 | 1016.6 |
| 20260905150507 | 76 | 88 | 2.0 | 8.0 | 0.00 | 0.40 | 0.00 | 79 | 1016.6 |
| 20260905150022 | 76 | 82 | 1.0 | 8.0 | 0.00 | 0.40 | 0.00 | 80 | 1016.5 |
| 20260905145512 | 74 | 88 | 3.0 | 8.0 | 0.00 | 0.40 | 0.00 | 85 | 1016.4 |
| 20260905145007 | 73 | 66 | 1.0 | 10.0 | 0.00 | 0.40 | 0.00 | 86 | 1016.4 |
| 20260905144537 | 73 | 60 | 4.0 | 10.0 | 0.00 | 0.40 | 0.00 | 87 | 1016.4 |
| 20260905144012 | 72 | 133 | 2.0 | 9.0 | 0.00 | 0.40 | 0.00 | 87 | 1016.4 |
| 20260905143507 | 72 | 111 | 3.0 | 12.0 | 0.00 | 0.40 | 0.00 | 87 | 1016.3 |
| 20260905143022 | 72 | 71 | 7.0 | 12.0 | 0.00 | 0.40 | 0.00 | 87 | 1016.2 |
| 20260905142509 | 72 | 71 | 4.0 | 11.0 | 0.00 | 0.40 | 0.00 | 87 | 1016.0 |
| 20260905142012 | 73 | 50 | 7.0 | 11.0 | 0.00 | 0.40 | 0.00 | 87 | 1016.0 |
| 20260905141530 | 73 | 44 | 4.0 | 8.0 | 0.00 | 0.40 | 0.00 | 87 | 1015.9 |
| 20260905141014 | 73 | 52 | 3.0 | 8.0 | 0.00 | 0.42 | 0.00 | 87 | 1015.9 |
| 20260905140509 | 73 | 59 | 4.0 | 8.0 | 0.00 | 0.45 | 0.00 | 87 | 1015.9 |
| 20260905140022 | 73 | 352 | 2.0 | 12.0 | 0.00 | 0.45 | 0.00 | 87 | 1015.9 |
| 20260905135507 | 73 | 21 | 6.0 | 12.0 | 0.00 | 0.45 | 0.00 | 86 | 1015.8 |
| 20260905135011 | 73 | 84 | 3.0 | 6.0 | 0.00 | 0.45 | 0.00 | 86 | 1015.9 |
| 20260905134520 | 73 | 131 | 1.0 | 10.0 | 0.00 | 0.45 | 0.00 | 87 | 1015.9 |
| 20260905134011 | 73 | 93 | 3.0 | 10.0 | 0.00 | 0.45 | 0.00 | 88 | 1016.0 |
| 20260905133512 | 72 | 76 | 3.0 | 9.0 | 0.00 | 0.45 | 0.00 | 88 | 1016.0 |
| 20260905133029 | 72 | 53 | 2.0 | 7.0 | 0.00 | 0.45 | 0.00 | 88 | 1015.9 |
| 20260905132513 | 72 | 46 | 3.0 | 7.0 | 0.00 | 0.45 | 0.00 | 88 | 1016.1 |
| 20260905132012 | 72 | 360 | 4.0 | 8.0 | 0.00 | 0.45 | 0.00 | 88 | 1016.0 |
| 20260905131507 | 72 | 84 | 2.0 | 8.0 | 0.00 | 0.45 | 0.00 | 89 | 1016.2 |
| 20260905131005 | 72 | 65 | 3.0 | 6.0 | 0.00 | 0.45 | 0.00 | 89 | 1016.4 |
| 20260905130507 | 72 | 85 | 3.0 | 6.0 | 0.00 | 0.45 | 0.00 | 89 | 1016.3 |
| 20260905130007 | 72 | 20 | 1.0 | 6.0 | 0.00 | 0.45 | 0.00 | 90 | 1016.1 |
| 20260905125506 | 72 | 306 | 1.0 | 6.0 | 0.00 | 0.45 | 0.00 | 90 | 1015.9 |
| 20260905125007 | 71 | 221 | 1.0 | 9.0 | 0.00 | 0.45 | 0.00 | 91 | 1015.9 |
| 20260905124507 | 71 | 57 | 3.0 | 9.0 | 0.00 | 0.45 | 0.00 | 91 | 1015.8 |
| 20260905124008 | 71 | 107 | 3.0 | 9.0 | 0.00 | 0.45 | 0.00 | 91 | 1015.8 |
| 20260905123506 | 71 | 146 | 4.0 | 8.0 | 0.00 | 0.45 | 0.00 | 91 | 1015.8 |
| 20260905123007 | 71 | 24 | 3.0 | 7.0 | 0.00 | 0.45 | 0.00 | 92 | 1015.8 |
| 20260905122508 | 71 | 32 | 2.0 | 8.0 | 0.00 | 0.45 | 0.00 | 92 | 1015.7 |
| 20260905122005 | 70 | 99 | 3.0 | 8.0 | 0.00 | 0.45 | 0.00 | 92 | 1015.7 |
| 20260905121508 | 70 | 34 | 1.0 | 7.0 | 0.00 | 0.45 | 0.00 | 93 | 1015.7 |
| 20260905121009 | 70 | 94 | 2.0 | 8.0 | 0.00 | 0.45 | 0.00 | 93 | 1015.5 |
| 20260905120506 | 70 | 69 | 4.0 | 10.0 | 0.00 | 0.45 | 0.00 | 93 | 1015.5 |
| 20260905120010 | 70 | 67 | 4.0 | 10.0 | 0.00 | 0.45 | 0.00 | 93 | 1015.3 |
| 20260905115509 | 70 | 59 | 4.0 | 10.0 | 0.00 | 0.45 | 0.00 | 93 | 1015.4 |
| 20260905115001 | 70 | 65 | 4.0 | 10.0 | 0.00 | 0.45 | 0.00 | 93 | 1015.4 |
| 20260905114512 | 70 | 40 | 4.0 | 8.0 | 0.00 | 0.45 | 0.00 | 93 | 1015.2 |
| 20260905114007 | 70 | 60 | 4.0 | 8.0 | 0.00 | 0.45 | 0.00 | 93 | 1015.2 |
| 20260905113502 | 70 | 71 | 3.0 | 7.0 | 0.00 | 0.45 | 0.00 | 93 | 1015.2 |
| 20260905113015 | 70 | 73 | 3.0 | 8.0 | 0.00 | 0.45 | 0.00 | 93 | 1015.1 |
| 20260905112507 | 69 | 78 | 5.0 | 8.0 | 0.00 | 0.45 | 0.00 | 93 | 1015.0 |
| 20260905112003 | 69 | 76 | 4.0 | 9.0 | 0.00 | 0.45 | 0.00 | 93 | 1015.0 |
| 20260905111516 | 69 | 41 | 4.0 | 12.0 | 0.00 | 0.45 | 0.00 | 93 | 1015.0 |
| 20260905111007 | 69 | 65 | 4.0 | 12.0 | 0.00 | 0.45 | 0.00 | 93 | 1014.9 |
| 20260905110504 | 69 | 40 | 5.0 | 10.0 | 0.00 | 0.45 | 0.00 | 93 | 1014.8 |
| 20260905110018 | 69 | 42 | 3.0 | 10.0 | 0.00 | 0.45 | 0.00 | 93 | 1014.8 |
| 20260905105509 | 69 | 12 | 4.0 | 9.0 | 0.00 | 0.45 | 0.00 | 93 | 1014.8 |
| 20260905105006 | 69 | 100 | 4.0 | 11.0 | 0.00 | 0.45 | 0.00 | 93 | 1014.7 |
| 20260905104515 | 69 | 71 | 7.0 | 11.0 | 0.00 | 0.45 | 0.00 | 93 | 1014.6 |
| 20260905104009 | 69 | 59 | 5.0 | 9.0 | 0.00 | 0.45 | 0.00 | 93 | 1014.6 |
| 20260905103506 | 69 | 88 | 3.0 | 8.0 | 0.00 | 0.45 | 0.00 | 93 | 1014.6 |
| 20260905103028 | 69 | 70 | 5.0 | 8.0 | 0.00 | 0.45 | 0.00 | 93 | 1014.5 |
| 20260905102507 | 69 | 36 | 3.0 | 7.0 | 0.00 | 0.45 | 0.00 | 92 | 1014.4 |
| 20260905102003 | 69 | 67 | 3.0 | 6.0 | 0.00 | 0.45 | 0.00 | 92 | 1014.4 |
| 20260905101522 | 69 | 32 | 3.0 | 8.0 | 0.00 | 0.45 | 0.00 | 92 | 1014.3 |
| 20260905101010 | 69 | 78 | 3.0 | 8.0 | 0.00 | 0.45 | 0.00 | 92 | 1014.3 |
| 20260905100506 | 70 | 92 | 4.0 | 8.0 | 0.00 | 0.45 | 0.00 | 92 | 1014.2 |
| 20260905100023 | 70 | 65 | 3.0 | 6.0 | 0.00 | 0.45 | 0.00 | 92 | 1014.3 |
| 20260905095511 | 70 | 60 | 3.0 | 5.0 | 0.00 | 0.45 | 0.00 | 92 | 1014.2 |
| 20260905095008 | 70 | 74 | 3.0 | 5.0 | 0.00 | 0.45 | 0.00 | 92 | 1014.2 |
| 20260905094520 | 70 | 65 | 2.0 | 5.0 | 0.00 | 0.45 | 0.00 | 92 | 1014.1 |
| 20260905094010 | 70 | 67 | 3.0 | 5.0 | 0.00 | 0.45 | 0.00 | 92 | 1014.1 |
| 20260905093511 | 70 | 55 | 3.0 | 4.0 | 0.00 | 0.45 | 0.00 | 92 | 1014.1 |
| 20260905093026 | 70 | 55 | 2.0 | 4.0 | 0.00 | 0.45 | 0.00 | 92 | 1014.1 |
| 20260905092514 | 70 | 50 | 1.0 | 3.0 | 0.00 | 0.45 | 0.00 | 92 | 1014.1 |
| 20260905092007 | 70 | 56 | 2.0 | 3.0 | 0.00 | 0.45 | 0.00 | 92 | 1014.1 |
| 20260905091525 | 70 | 59 | 2.0 | 3.0 | 0.00 | 0.45 | 0.00 | 92 | 1014.0 |
| 20260905091004 | 70 | 71 | 1.0 | 3.0 | 0.00 | 0.45 | 0.00 | 92 | 1014.0 |
| 20260905090507 | 70 | 67 | 2.0 | 3.0 | 0.00 | 0.45 | 0.00 | 92 | 1014.1 |
| 20260905090023 | 70 | 63 | 1.0 | 3.0 | 0.00 | 0.45 | 0.00 | 92 | 1014.1 |
| 20260905085504 | 70 | 63 | 1.0 | 3.0 | 0.00 | 0.45 | 0.00 | 92 | 1014.2 |
| 20260905085007 | 70 | 76 | 0.0 | 2.0 | 0.00 | 0.45 | 0.00 | 92 | 1014.3 |
| 20260905084526 | 70 | 134 | 0.0 | 2.0 | 0.00 | 0.45 | 0.00 | 92 | 1014.3 |
| 20260905084005 | 70 | 27 | 0.0 | 2.0 | 0.00 | 0.46 | 0.00 | 92 | 1014.3 |
| 20260905083513 | 70 | 171 | 0.0 | 2.0 | 0.00 | 0.46 | 0.00 | 92 | 1014.2 |
| 20260905083022 | 70 | 126 | 0.0 | 2.0 | 0.00 | 0.46 | 0.00 | 92 | 1014.2 |
| 20260905082504 | 70 | 77 | 0.0 | 2.0 | 0.00 | 0.46 | 0.00 | 92 | 1014.1 |
| 20260905082013 | 70 | 80 | 0.0 | 2.0 | 0.00 | 0.46 | 0.00 | 92 | 1014.1 |
| 20260905081525 | 70 | 68 | 0.0 | 2.0 | 0.00 | 0.46 | 0.00 | 92 | 1014.0 |
| 20260905081008 | 70 | 84 | 0.0 | 2.0 | 0.00 | 0.46 | 0.00 | 92 | 1013.9 |
| 20260905080512 | 71 | 117 | 0.0 | 2.0 | 0.00 | 0.46 | 0.00 | 92 | 1013.9 |
| 20260905080028 | 71 | 81 | 0.0 | 4.0 | 0.00 | 0.46 | 0.00 | 92 | 1013.9 |
| 20260905075507 | 71 | 97 | 0.0 | 4.0 | 0.00 | 0.47 | 0.00 | 92 | 1013.8 |
| 20260905075013 | 71 | 60 | 2.0 | 4.0 | 0.00 | 0.47 | 0.00 | 92 | 1013.9 |
| 20260905074537 | 71 | 82 | 1.0 | 2.0 | 0.00 | 0.47 | 0.00 | 91 | 1013.8 |
| 20260905074010 | 71 | 62 | 1.0 | 2.0 | 0.00 | 0.47 | 0.00 | 91 | 1013.9 |
| 20260905073512 | 71 | 82 | 0.0 | 2.0 | 0.00 | 0.47 | 0.00 | 91 | 1014.1 |
| 20260905073037 | 71 | 71 | 0.0 | 2.0 | 0.00 | 0.47 | 0.00 | 91 | 1014.1 |
| 20260905072509 | 71 | 88 | 0.0 | 2.0 | 0.00 | 0.47 | 0.00 | 91 | 1014.1 |
| 20260905072011 | 71 | 32 | 0.0 | 2.0 | 0.00 | 0.47 | 0.00 | 91 | 1014.0 |
| 20260905071527 | 71 | 345 | 0.0 | 2.0 | 0.00 | 0.47 | 0.00 | 91 | 1013.9 |
| 20260905071009 | 71 | 348 | 0.0 | 2.0 | 0.00 | 0.47 | 0.00 | 91 | 1013.9 |
| 20260905070503 | 71 | 54 | 0.0 | 2.0 | 0.00 | 0.47 | 0.00 | 90 | 1013.9 |
| 20260905070013 | 71 | 56 | 0.0 | 2.0 | 0.00 | 0.47 | 0.00 | 90 | 1013.8 |
| 20260905065513 | 71 | 18 | 0.0 | 2.0 | 0.00 | 0.47 | 0.00 | 90 | 1013.8 |
| 20260905065002 | 72 | 19 | 0.0 | 2.0 | 0.00 | 0.47 | 0.00 | 90 | 1013.9 |
| 20260905064516 | 72 | 69 | 0.0 | 2.0 | 0.00 | 0.47 | 0.00 | 90 | 1014.1 |
| 20260905064013 | 72 | 52 | 0.0 | 3.0 | 0.00 | 0.47 | 0.00 | 90 | 1014.0 |
| 20260905063505 | 72 | 74 | 1.0 | 3.0 | 0.00 | 0.47 | 0.00 | 90 | 1013.9 |
| 20260905063014 | 72 | 59 | 1.0 | 3.0 | 0.00 | 0.47 | 0.00 | 90 | 1013.9 |
| 20260905062500 | 72 | 13 | 0.0 | 3.0 | 0.00 | 0.47 | 0.00 | 90 | 1014.1 |
| 20260905062003 | 72 | 121 | 1.0 | 3.0 | 0.00 | 0.47 | 0.00 | 89 | 1014.1 |
| 20260905061517 | 72 | 59 | 0.0 | 2.0 | 0.00 | 0.47 | 0.00 | 89 | 1014.1 |
| 20260905061001 | 72 | 140 | 0.0 | 3.0 | 0.00 | 0.47 | 0.00 | 89 | 1014.0 |
| 20260905060503 | 72 | 57 | 1.0 | 3.0 | 0.00 | 0.47 | 0.00 | 89 | 1014.0 |
| 20260905060017 | 72 | 76 | 1.0 | 2.0 | 0.00 | 0.47 | 0.00 | 89 | 1014.1 |
| 20260905055502 | 72 | 32 | 0.0 | 2.0 | 0.00 | 0.47 | 0.00 | 90 | 1014.0 |
| 20260905055004 | 72 | 32 | 0.0 | 2.0 | 0.00 | 0.47 | 0.00 | 90 | 1014.1 |
| 20260905054520 | 72 | 19 | 0.0 | 2.0 | 0.00 | 0.47 | 0.00 | 90 | 1014.0 |
| 20260905054000 | 72 | 300 | 0.0 | 3.0 | 0.00 | 0.47 | 0.00 | 90 | 1014.0 |
| 20260905053507 | 72 | 246 | 1.0 | 3.0 | 0.00 | 0.47 | 0.00 | 90 | 1014.0 |
| 20260905053025 | 72 | 254 | 1.0 | 3.0 | 0.00 | 0.47 | 0.00 | 90 | 1013.8 |
| 20260905052503 | 72 | 250 | 0.0 | 2.0 | 0.00 | 0.47 | 0.00 | 90 | 1013.9 |
| 20260905052003 | 72 | 240 | 1.0 | 2.0 | 0.00 | 0.47 | 0.00 | 89 | 1013.9 |
| 20260905051523 | 72 | 236 | 0.0 | 2.0 | 0.00 | 0.47 | 0.00 | 89 | 1014.1 |
| 20260905051003 | 72 | 244 | 0.0 | 2.0 | 0.00 | 0.47 | 0.00 | 89 | 1014.2 |
| 20260905050507 | 72 | 243 | 0.0 | 2.0 | 0.00 | 0.47 | 0.00 | 89 | 1014.3 |
| 20260905050031 | 73 | 241 | 0.0 | 2.0 | 0.00 | 0.47 | 0.00 | 88 | 1014.3 |
| 20260905045504 | 73 | 235 | 0.0 | 2.0 | 0.00 | 0.47 | 0.47 | 88 | 1014.3 |
| 20260905045004 | 73 | 130 | 0.0 | 2.0 | 0.00 | 0.47 | 0.47 | 88 | 1014.2 |
| 20260905044527 | 73 | 132 | 0.0 | 2.0 | 0.00 | 0.47 | 0.47 | 88 | 1014.3 |
| 20260905044002 | 73 | 77 | 0.0 | 1.0 | 0.00 | 0.47 | 0.47 | 88 | 1014.3 |
| 20260905043505 | 73 | 76 | 0.0 | 2.0 | 0.00 | 0.47 | 0.47 | 88 | 1014.4 |
| 20260905043030 | 73 | 74 | 0.0 | 3.0 | 0.00 | 0.47 | 0.47 | 88 | 1014.5 |
| 20260905042502 | 73 | 63 | 1.0 | 3.0 | 0.00 | 0.47 | 0.47 | 88 | 1014.5 |
| 20260905042008 | 73 | 44 | 2.0 | 5.0 | 0.00 | 0.47 | 0.47 | 88 | 1014.4 |
| 20260905041531 | 73 | 57 | 2.0 | 5.0 | 0.00 | 0.47 | 0.47 | 87 | 1014.4 |
| 20260905041006 | 73 | 57 | 2.0 | 3.0 | 0.00 | 0.47 | 0.47 | 87 | 1014.5 |
| 20260905040509 | 73 | 77 | 2.0 | 3.0 | 0.00 | 0.47 | 0.47 | 87 | 1014.4 |
| 20260905040030 | 73 | 65 | 2.0 | 3.0 | 0.00 | 0.47 | 0.47 | 87 | 1014.3 |
| 20260905035503 | 73 | 38 | 2.0 | 3.0 | 0.00 | 0.47 | 0.47 | 87 | 1014.2 |
| 20260905035008 | 74 | 59 | 0.0 | 2.0 | 0.00 | 0.47 | 0.47 | 87 | 1014.2 |
| 20260905034535 | 74 | 5 | 0.0 | 2.0 | 0.00 | 0.47 | 0.47 | 87 | 1014.3 |
| 20260905034004 | 74 | 19 | 0.0 | 2.0 | 0.00 | 0.47 | 0.47 | 87 | 1014.1 |
| 20260905033510 | 74 | 107 | 0.0 | 2.0 | 0.00 | 0.47 | 0.47 | 87 | 1014.0 |
| 20260905033010 | 74 | 275 | 0.0 | 2.0 | 0.00 | 0.47 | 0.47 | 87 | 1014.1 |
| 20260905032508 | 74 | 204 | 0.0 | 2.0 | 0.00 | 0.47 | 0.47 | 87 | 1014.0 |
| 20260905032009 | 74 | 178 | 0.0 | 2.0 | 0.00 | 0.47 | 0.47 | 87 | 1014.2 |
| 20260905031506 | 74 | 112 | 0.0 | 2.0 | 0.00 | 0.47 | 0.47 | 86 | 1014.3 |
| 20260905031007 | 74 | 123 | 1.0 | 2.0 | 0.00 | 0.47 | 0.47 | 86 | 1014.4 |
| 20260905030510 | 74 | 128 | 0.0 | 3.0 | 0.00 | 0.47 | 0.47 | 86 | 1014.5 |
| 20260905030009 | 74 | 96 | 1.0 | 3.0 | 0.00 | 0.47 | 0.47 | 86 | 1014.4 |
| 20260905025510 | 74 | 152 | 1.0 | 3.0 | 0.00 | 0.47 | 0.47 | 86 | 1014.4 |
| 20260905025014 | 74 | 135 | 1.0 | 2.0 | 0.00 | 0.47 | 0.47 | 86 | 1014.6 |
| 20260905024508 | 74 | 102 | 0.0 | 4.0 | 0.00 | 0.47 | 0.47 | 85 | 1014.4 |
| 20260905024007 | 74 | 107 | 1.0 | 4.0 | 0.00 | 0.47 | 0.47 | 85 | 1014.3 |
| 20260905023515 | 74 | 90 | 2.0 | 4.0 | 0.00 | 0.47 | 0.47 | 85 | 1014.5 |
| 20260905023031 | 75 | 77 | 2.0 | 5.0 | 0.00 | 0.47 | 0.47 | 84 | 1014.3 |
| 20260905022507 | 75 | 55 | 2.0 | 6.0 | 0.00 | 0.47 | 0.47 | 84 | 1014.4 |
| 20260905022016 | 75 | 40 | 2.0 | 6.0 | 0.00 | 0.47 | 0.47 | 84 | 1014.3 |
| 20260905021516 | 75 | 63 | 2.0 | 5.0 | 0.00 | 0.47 | 0.47 | 83 | 1014.2 |
| 20260905021009 | 75 | 51 | 2.0 | 5.0 | 0.00 | 0.47 | 0.47 | 83 | 1014.3 |
| 20260905020515 | 75 | 90 | 3.0 | 7.0 | 0.00 | 0.47 | 0.47 | 83 | 1014.2 |
| 20260905020022 | 76 | 42 | 3.0 | 7.0 | 0.00 | 0.47 | 0.47 | 82 | 1014.4 |
| 20260905015511 | 76 | 61 | 3.0 | 7.0 | 0.00 | 0.47 | 0.47 | 82 | 1014.4 |
| 20260905015017 | 76 | 55 | 4.0 | 7.0 | 0.00 | 0.47 | 0.47 | 82 | 1014.4 |
| 20260905014513 | 76 | 65 | 3.0 | 7.0 | 0.00 | 0.47 | 0.47 | 82 | 1014.4 |
| 20260905014012 | 76 | 55 | 3.0 | 5.0 | 0.00 | 0.47 | 0.47 | 82 | 1014.3 |
| 20260905013515 | 76 | 61 | 3.0 | 5.0 | 0.00 | 0.47 | 0.47 | 82 | 1014.3 |
| 20260905013014 | 76 | 68 | 3.0 | 4.0 | 0.00 | 0.47 | 0.47 | 82 | 1014.3 |
| 20260905012513 | 76 | 45 | 3.0 | 7.0 | 0.00 | 0.47 | 0.47 | 82 | 1014.3 |
| 20260905012018 | 76 | 70 | 3.0 | 7.0 | 0.00 | 0.47 | 0.47 | 82 | 1014.3 |
| 20260905011513 | 76 | 61 | 3.0 | 6.0 | 0.00 | 0.47 | 0.47 | 82 | 1014.1 |
| 20260905011012 | 76 | 57 | 3.0 | 5.0 | 0.00 | 0.47 | 0.47 | 82 | 1014.0 |
| 20260905010521 | 76 | 105 | 2.0 | 8.0 | 0.00 | 0.47 | 0.47 | 82 | 1014.1 |
| 20260905010018 | 76 | 59 | 4.0 | 8.0 | 0.00 | 0.47 | 0.47 | 82 | 1014.0 |
| 20260905005511 | 76 | 90 | 4.0 | 8.0 | 0.00 | 0.47 | 0.47 | 81 | 1014.1 |
| 20260905005016 | 76 | 30 | 3.0 | 8.0 | 0.00 | 0.47 | 0.47 | 81 | 1013.8 |
| 20260905004521 | 76 | 55 | 3.0 | 10.0 | 0.00 | 0.47 | 0.47 | 81 | 1013.6 |
| 20260905004014 | 77 | 83 | 5.0 | 10.0 | 0.00 | 0.47 | 0.47 | 81 | 1013.5 |
| 20260905003522 | 77 | 75 | 5.0 | 10.0 | 0.00 | 0.47 | 0.47 | 80 | 1013.5 |
| 20260905003023 | 77 | 61 | 6.0 | 10.0 | 0.00 | 0.47 | 0.47 | 80 | 1013.4 |
| 20260905002515 | 77 | 40 | 4.0 | 9.0 | 0.00 | 0.47 | 0.47 | 80 | 1013.4 |
| 20260905002003 | 78 | 73 | 7.0 | 9.0 | 0.00 | 0.47 | 0.47 | 79 | 1013.2 |
| 20260905001523 | 78 | 88 | 3.0 | 6.0 | 0.00 | 0.47 | 0.47 | 80 | 1013.1 |
| 20260905001015 | 78 | 41 | 4.0 | 8.0 | 0.00 | 0.47 | 0.47 | 79 | 1013.2 |
| 20260905000504 | 78 | 78 | 4.0 | 9.0 | 0.00 | 0.47 | 0.47 | 79 | 1013.1 |
| 20260905000026 | 79 | 82 | 5.0 | 9.0 | 0.00 | 0.47 | 0.47 | 78 | 1013.3 |
| 20260904235520 | 79 | 57 | 3.0 | 6.0 | 0.00 | 0.47 | 0.47 | 78 | 1013.2 |
| 20260904235006 | 79 | 47 | 3.0 | 6.0 | 0.00 | 0.47 | 0.47 | 78 | 1013.2 |
| 20260904234532 | 80 | 91 | 2.0 | 6.0 | 0.00 | 0.47 | 0.47 | 78 | 1013.2 |
| 20260904234016 | 80 | 65 | 4.0 | 8.0 | 0.00 | 0.47 | 0.47 | 77 | 1013.3 |
| 20260904233506 | 81 | 98 | 4.0 | 9.0 | 0.00 | 0.47 | 0.47 | 76 | 1013.1 |
| 20260904233027 | 82 | 43 | 3.0 | 10.0 | 0.00 | 0.47 | 0.47 | 74 | 1012.9 |
| 20260904232517 | 85 | 76 | 3.0 | 10.0 | 0.00 | 0.47 | 0.47 | 73 | 1012.7 |
| 20260904232010 | 85 | 348 | 1.0 | 2.0 | 0.00 | 0.47 | 0.47 | 74 | 1012.6 |
| 20260904231529 | 85 | 330 | 0.0 | 2.0 | 0.00 | 0.47 | 0.47 | 74 | 1012.5 |
| 20260904231018 | 85 | 332 | 0.0 | 2.0 | 0.00 | 0.47 | 0.47 | 73 | 1012.6 |
| 20260904230513 | 85 | 331 | 0.0 | 2.0 | 0.00 | 0.47 | 0.47 | 73 | 1012.7 |
| 20260904230032 | 85 | 340 | 0.0 | 2.0 | 0.00 | 0.47 | 0.47 | 73 | 1012.8 |
| 20260904225504 | 85 | 343 | 0.0 | 2.0 | 0.00 | 0.47 | 0.47 | 72 | 1012.9 |
| 20260904225010 | 85 | 326 | 1.0 | 3.0 | 0.00 | 0.47 | 0.47 | 72 | 1012.8 |
| 20260904224531 | 86 | 350 | 2.0 | 3.0 | 0.00 | 0.47 | 0.47 | 72 | 1012.8 |
| 20260904224007 | 86 | 315 | 1.0 | 3.0 | 0.00 | 0.47 | 0.47 | 71 | 1012.7 |
| 20260904223510 | 86 | 240 | 1.0 | 4.0 | 0.00 | 0.47 | 0.47 | 71 | 1012.8 |
| 20260904223034 | 86 | 258 | 2.0 | 4.0 | 0.00 | 0.47 | 0.47 | 71 | 1012.9 |